OBJECT DP, 66775

Orbit data source: Space-Track

You're viewing an Uncataloged Satellite

Recently launched and/or uncataloged satellites may have evolving metadata. Metadata may include but not limited to: Owner, Maufacturer, Bus, Motor, and Mission.

OBJECT DP, 66775 is a satellite in SSO that was launched on Fri, 28 Nov 2025 UTC via an FALCON 9 launch vehicle from the Air Force Western Test Range (AFWTR). Unknown objects in Earth's orbit typically refer to objects detected orbiting the Earth but have not yet been identified or cataloged. These objects could be anything from previously untracked satellites, spent rocket stages, debris from satellite collisions, or even natural meteoroids temporarily captured by Earth's gravity.

Loading next visibility...
Identifier
66775, 2025-276DP
Orbit
SSO
Country
Flag of TBDTBD
Related business
Manufacturer
Rashid Space Ctr
Mission
Operational Civil Technology
Bus & Motor
CUBESAT 12U, Unknown motor
Mass
~20 kg wet, ~20 kg dry
Launch date (UTC)
2025-11-28 (6 months ago)
Launch vehicle
FALCON 9
Launch site
Air Force Western Test Range (AFWTR)
Object type
Unknown
Shape & HBR
Box, 0.1 m
Radar Cross Section
0.080 m²

Expand to show TLE details & history
Last TLE update: 13 hours ago

TLE from 13 hours ago
0 OBJECT DP
1 66775U 25276DP  26144.67876601  .00005632  00000-0  25726-3 0  9992
2 66775  97.4135 218.8071 0001227 163.6624 196.4651 15.20971997 26874
Epoch: 2026-05-24T16:17Z
TLE epoch observation values (Epoch: 2026-05-24T16:17:25.383Z)
Latitude
-0.00005°
Longitude
92.17389°
Altitude
506.809 km
Speed
7.61 km/s
True Right ascension
14h 35m 13s
True Declination
0° 00' 00"
Sunlit
Object was in full shadow at epoch
Visualization orbit readout
Latitude
Unknown
Longitude
Unknown
Altitude
Unknown
Speed
Unknown
Apparent Right ascension
Unknown
Apparent Declination
Unknown
Sunlit
N/A
Visualization observer readout
Local Sidereal Time
14:32:27
Azimuth
Unknown
Elevation
Unknown
Doppler factor
Unknown
Orbital elements
Apogee altitude
500.716 km
Perigee altitude
499.028 km
Semi-major axis
6,878.009 km
Eccentricity
0.00012
Inclination
97.4135°
RAAN
218.8071°
Arg. of periapsis
163.6624°
True anomaly
196.46112°
Mean anomaly
196.4651°
Eccentric anomaly
196.46311°
Mean motion
3.80495 °/min
Orbital period
94.61 mins
BSTAR
0.00025726
Loading maneuver chart data...
Computing Atmospheric mass density...
Loading historical data...
Loading historical data...
Loading historical data...
Loading historical data...
Loading historical data...
Loading historical data...
Loading historical data...

Documentation

Showing up to 5 results
|